Погода в Петрозаводске

Хотите узнать прогноз погоды в Петрозаводске? Тогда Вам сюда: Погода в Петрозаводске

Поиск расширенной информации на нашем сайте:

Полезная информация:

Новости сайта



02.01.2020
Опубликован Долгосрочный прогноз погоды по городам России и ближнего зарубежья на январь 2020 года.
Карты: Прогноз на январь и февраль 2020 года, Сравнение прогнозируемой аномалии приземной температуры воздуха на январь 2020 года по разным моделям.




Погода в Петрозаводске - сегодня

Время (UTC), дата Ветер
(°,м/с) 
Видим.   Явления Облачность Т
(°С)
Тd
(°С)
f(%) Тe
(°С)
Pmin
(гПа)
dP
(гПа)
Po
(мм)
O2
(г/м3)
Тmin Tmax R s Состояние
почвы
00 16.01.22 260 (З) 20000 м    10/10 700 м 
[Sc]
-5.9 -7.8 86 -8  1004.4  0.1  743  307           
03 16.01.22 250 (З) 20000 м    9/0 средняя 
[Ac trans]
-6.1 -8.3 84 -9  1003.3  -1.1  742  307  -6.1    0.0     
06 16.01.22 240 (ЮЗ) 20000 м    9/0 средняя 
[Ac trans]
-5.5 -8.3 81 -9  999.8  -3.5  739  305  -6.3      41  равномерный
сухой снег
100% 
09 16.01.22 240 (ЮЗ) 6-12{13}  12000 м  позёмок{снег}  10/4 600 м средняя 
[Sc|Ac As]
-2.9 -5.4 83 -7  994.7  -4.8  736  300           
12 16.01.22 240 (ЮЗ) 6-11{14}  7000 м  слаб. снег  10/8 360 м средняя 
[Sc|As op]
-1.7 -4.1 84 -5  991.6  -3  734  298           
15 16.01.22 240 (ЮЗ) 6-11{13}  20000 м  позёмок{снег}  10/8 330 м средняя 
[Sc|As trans]
-1 -3.2 85 -5  988.7  -2.9  731  296      0.3     
18 16.01.22 230 (ЮЗ) 7-14{15}  4000 м  позёмок{снег}  8/0 средняя 
[As trans]
-1.4 -4.2 81 -6  983.4  -5.2  728  295    -1  0.3     
21 16.01.22 220 (ЮЗ) 6-10{15}  10 км  {снег}  10/0 средняя 
[As op]
-0.9 -3.4 83 -5  978.4  -4.9  724  293           
00 17.01.22 260 (З) 5-10{13}  2000 м  слаб. снег  10/8 100 м средняя 
[Frnb|As op]
+0 -1.4 90 -3  976.7  -1.7  723  291           
03 17.01.22 280 (З) 5{11}  20000 м  {снег}  8/8 570 м 
[Sc]
-1.1 -4.1 80 -4  977.4  0.7  723  293  -1.5    0.6     
06 17.01.22 250 (З) 20000 м  {снег}  9/0 средняя 
[Ac trans]
-3.5 -5.6 85 -6  977.8  0.3  723  296  -3.6    0.6  40  равномерный
сухой снег
100% 
09 17.01.22 260 (З) 20000 м    9/0 средняя 
[Ac trans]
-2.9 -5.1 85 -6  978.3  0.5  724  295           
12 17.01.22 290 (З) 20000 м    5/5 600 м 
[Sc]
-3.9 -7 79 -7  979.6  1.2  725  297           
15 17.01.22 300 (СЗ) 4{11}  20000 м  в посл. час снег  10/9 800 м средняя 
[Sc|As trans]
-4.7 -7.8 79 -8  983.3  3.6  727  299      0.0     
18 17.01.22 300 (СЗ) 20000 м  {снег}  1/1 600 м 
[Sc]
-6.9 -10.2 77 -11  986.6  3.2  730  303    -2.6  0.0     
21 17.01.22 300 (СЗ) 5{10}  20000 м  {снег}  9/9 720 м 
[Sc]
-7 -10.6 75 -11  990.7  733  304           
00 18.01.22 310 (СЗ) 4{10}  20000 м  {снег}  10/0 средняя 
[Ac trans]
-6.6 -10.8 72 -10  995.2  4.4  736  305           
03 18.01.22 300 (СЗ) 20000 м    4/0 верхняя 
[Ci fib]
-7.9 -12.1 72 -12  999.6  4.3  739  308  -8.1    0.0     
06 18.01.22 300 (СЗ) 20000 м    ясно 
-8.9 -13.4 70 -13  1003.6  3.9  742  310  -8.9    0.0  40  равномерный
сухой снег
100% 
09 18.01.22 300 (СЗ) 5{10}  25000 м    6/0 верхняя 
[Ci fib]
-7.9 -12.8 68 -12  1007  3.4  745  310           
12 18.01.22 290 (З) 20000 м    9/0 верхняя 
[Ci fib]
-7.9 -12.7 68 -12  1009.2  2.2  746  311           
15 18.01.22 270 (З) 20000 м    9/0 верхняя 
[Ci fib]
-9.7 -13.1 76 -13  1011.9  2.5  748  314           
18 18.01.22 260 (З) 20000 м    10/0 верхняя 
[Ci fib]
-10.3 -12.7 83 -14  1011.9  748  314    -7.7       
21 18.01.22 250 (З) 20000 м    10/0 средняя 
[As trans]
-8.7 -11.8 78 -12  1010.5  -1.3  747  312           
00 19.01.22 240 (ЮЗ) 20000 м    10/0 средняя 
[Ac As]
-5 -8.3 78 -7  1007.5  -2.7  745  307           
Время (UTC), дата Ветер
(°,м/с) 
Видим.   Явления Облачность Т
(°С)
Тd
(°С)
f(%) Тe
(°С)
Pmin
(гПа)
dP
(гПа)
Po
(мм)
O2
(г/м3)
Тmin Tmax R s Состояние
почвы

Для получения пояснительной информации подведите курсор к названию столбца.

ПОГОДА в Петрозаводске - архив

Всё, что Вы хотите узнать о погоде в Петрозаводске - удобно и подробно!

Выберите нужную дату (начиная с 1 января 2019* года) и нажмите кнопку "Найти".
Будут отображены архивные сводки погоды по пункту Петрозаводск, начиная с указанной даты.


Отображать данные в формате CSV (для использования в таблицах Excel)


Внимание! Наш архив погоды предназначен исключительно для личного некоммерческого использования в познавательных целях. Если Вам необходимы официальные справки о состоянии погоды (для производственных, юридических, коммерческих и т.п. целей), обращайтесь в органы Росгидромета.

*Примечание: данная дата относится к архиву по метеостанциям СССР (Россия, СНГ, Балтия).
Архив по метеостанциям Зарубежной Европы и Азии (кроме Китая) хранится 10 дней, по другим регионам земного шара (Китай, Африка, Америка, Австралия, Океания) - 1 день.

Петрозаводск - район местоположения метеостанции


Название, широта, долгота, высота метеостанции:
Петрозаводск 61.8°ш. 34.3°д. 110 м над ур. моря [Российская Федерация]

Дополнительная информация

В oтличие oт бoльшинства пoгoдных сайтoв мы публикуем пoдрoбную метеoинфoрмацию в детальнoм прoфессиoнальнoм фoрмате.

Характеристики температуры и влажнoсти вoздуха измеряются на высoте 2 м в тени вдали oт зданий и деревьев.
Скoрoсть ветра измеряется на высoте 10 м (на урoвне рoста челoвека скoрoсть ветра ниже в 1.5-2 раза). Если метеoстанция нахoдится в гoрoде или в лесу, тo скoрoсть ветра занижена на 2-4 м/с пo сравнению с oткрытым местoм. Скoрoсть ветра над акватoриями крупных рек и oзёр, а также на вершинах хoлмoв на 2-5 м/с выше, чем в oбычных услoвиях.
Атмoсфернoе давление в разных тoчках местнoсти мoжет значительнo oтличаться oт давления на метеoстанции, в зависимoсти oт услoвий рельефа (при пoдъёме на 10 м давление пoнижается примернo на 1 мм рт.ст.).